User: anonymous   Login
Location: Unspecified
(0.0000°N, 0.0000°E)
Time: 07:05:12
(UTC+00:00)
Language:

Apple - Orbit

View from above orbital plane
View from above orbital plane
View from above satellite
View from above satellite

Ground track
Ground track

The orbit data is extracted from the following two-line orbital elements,

1 12545U 81057B   18015.38506868 -.00000191 +00000-0 +00000-0 0  9999
2 12545 013.3202 328.3430 0020511 144.2336 057.0656 01.00026501091627
Epoch (UTC): 15 January 2018 09:14:29
Eccentricity: 0.0020511
inclination: 13.3202°
perigee height: 35768 km
apogee height: 35942 km
right ascension of ascending node: 328.3430°
argument of perigee: 144.2336°
revolutions per day: 1.00026501
mean anomaly at epoch: 57.0656°
orbit number at epoch: 9162

The dashed part of the orbit path shows where the satellite is in the earth's shadow,  

DLR